PTRZB SNAB-SNBI

Flight info

Callsign PTRZB
Flight time 1h 48m
Altitude 6500
Route DCT 0721S04101W 0704S04131W 0620S04228W 0541S04306W 0515S04335W 0434S04436W DCT
Aircraft C208/L-SDFGR/C

Departure

Time 2026-04-29 21:42
Airport Araripina Airport (SNAB)

Arrival

Time 2026-04-29 23:31
Airport Bacabal Airport (SNBI)
Time Latitude Longitude Altitude Speed Heading
2026-04-29 21:33 -7.58552 -40.53509 2203 ft 0 kts 24°
2026-04-29 21:35 -7.58554 -40.53510 2203 ft 4 kts 24°
2026-04-29 21:36 -7.58569 -40.53512 2202 ft 2 kts 333°
2026-04-29 21:36 -7.58574 -40.53504 2203 ft 1 kts 274°
2026-04-29 21:37 -7.58579 -40.53525 2204 ft 8 kts 233°
2026-04-29 21:37 -7.58607 -40.53539 2202 ft 0 kts 198°
2026-04-29 21:38 -7.58632 -40.53563 2202 ft 11 kts 246°
2026-04-29 21:38 -7.58608 -40.53631 2202 ft 14 kts 289°
2026-04-29 21:38 -7.58570 -40.53744 2202 ft 20 kts 289°
2026-04-29 21:38 -7.58521 -40.53892 2203 ft 24 kts 288°
2026-04-29 21:39 -7.58474 -40.54034 2206 ft 14 kts 276°
2026-04-29 21:39 -7.58468 -40.54071 2206 ft 0 kts 357°
2026-04-29 21:39 -7.58462 -40.54054 2206 ft 6 kts 120°
2026-04-29 21:39 -7.58464 -40.54049 2206 ft 2 kts 115°
2026-04-29 21:40 -7.58470 -40.54033 2206 ft 0 kts 110°
2026-04-29 21:41 -7.58506 -40.53926 2204 ft 55 kts 108°
2026-04-29 21:41 -7.58698 -40.53350 2305 ft 103 kts 109°
2026-04-29 21:41 -7.58939 -40.52654 2642 ft 106 kts 109°
2026-04-29 21:42 -7.59176 -40.51934 2976 ft 109 kts 110°
2026-04-29 21:42 -7.59340 -40.51195 3309 ft 109 kts 87°
2026-04-29 21:42 -7.58816 -40.50641 3630 ft 127 kts 24°
2026-04-29 21:42 -7.57943 -40.50878 3932 ft 141 kts 318°
2026-04-29 21:43 -7.57585 -40.51748 4258 ft 134 kts 277°
2026-04-29 21:43 -7.57358 -40.52672 4615 ft 137 kts 280°
2026-04-29 21:43 -7.57132 -40.53619 4953 ft 139 kts 280°
2026-04-29 21:43 -7.56913 -40.54567 5283 ft 137 kts 280°
2026-04-29 21:44 -7.56684 -40.55501 5618 ft 135 kts 280°
2026-04-29 21:44 -7.56456 -40.56427 5952 ft 137 kts 279°
2026-04-29 21:44 -7.56227 -40.57344 6287 ft 137 kts 281°
2026-04-29 21:44 -7.55996 -40.58316 6425 ft 152 kts 280°
2026-04-29 21:45 -7.55788 -40.59397 6437 ft 162 kts 278°
2026-04-29 21:45 -7.55405 -40.60496 6435 ft 169 kts 293°
2026-04-29 21:45 -7.54899 -40.61571 6431 ft 170 kts 294°
2026-04-29 21:45 -7.54385 -40.62649 6432 ft 170 kts 294°
2026-04-29 21:46 -7.53880 -40.63733 6434 ft 171 kts 294°
2026-04-29 21:46 -7.53376 -40.64815 6404 ft 178 kts 294°
2026-04-29 21:46 -7.52839 -40.65967 6411 ft 184 kts 294°
2026-04-29 21:46 -7.52284 -40.67155 6417 ft 189 kts 294°
2026-04-29 21:47 -7.51719 -40.68367 6417 ft 190 kts 294°
2026-04-29 21:47 -7.51156 -40.69577 6419 ft 191 kts 294°
2026-04-29 21:47 -7.50585 -40.70794 6422 ft 192 kts 294°
2026-04-29 21:47 -7.50017 -40.72011 6419 ft 192 kts 294°
2026-04-29 21:48 -7.49450 -40.73228 6417 ft 192 kts 294°
2026-04-29 21:48 -7.48888 -40.74435 6429 ft 193 kts 294°
2026-04-29 21:48 -7.48317 -40.75662 6419 ft 192 kts 294°
2026-04-29 21:48 -7.47742 -40.76881 6418 ft 192 kts 294°
2026-04-29 21:49 -7.47175 -40.78103 6420 ft 192 kts 294°
2026-04-29 21:49 -7.46609 -40.79322 6412 ft 191 kts 294°
2026-04-29 21:49 -7.46049 -40.80517 6412 ft 190 kts 295°
2026-04-29 21:49 -7.45482 -40.81724 6405 ft 189 kts 294°
2026-04-29 21:50 -7.44925 -40.82919 6411 ft 188 kts 294°
2026-04-29 21:50 -7.44369 -40.84116 6411 ft 189 kts 294°
2026-04-29 21:50 -7.43802 -40.85323 6409 ft 191 kts 294°
2026-04-29 21:50 -7.43239 -40.86529 6410 ft 191 kts 294°
2026-04-29 21:51 -7.42679 -40.87730 6415 ft 192 kts 294°
2026-04-29 21:51 -7.42112 -40.88947 6414 ft 191 kts 294°
2026-04-29 21:51 -7.40979 -40.91361 6407 ft 189 kts 295°
2026-04-29 21:52 -7.40415 -40.92566 6409 ft 190 kts 294°
2026-04-29 21:52 -7.39860 -40.93764 6411 ft 191 kts 294°
2026-04-29 21:52 -7.39295 -40.94976 6409 ft 190 kts 295°
2026-04-29 21:52 -7.38729 -40.96181 6404 ft 190 kts 294°
2026-04-29 21:53 -7.38167 -40.97387 6399 ft 189 kts 294°
2026-04-29 21:53 -7.37605 -40.98586 6399 ft 190 kts 294°
2026-04-29 21:53 -7.37040 -40.99791 6401 ft 190 kts 294°
2026-04-29 21:53 -7.36477 -41.00999 6404 ft 191 kts 295°
2026-04-29 21:54 -7.35910 -41.02210 6403 ft 190 kts 294°
2026-04-29 21:54 -7.35288 -41.03364 6403 ft 190 kts 300°
2026-04-29 21:54 -7.34613 -41.04515 6400 ft 191 kts 300°
2026-04-29 21:54 -7.33946 -41.05677 6407 ft 191 kts 300°
2026-04-29 21:55 -7.33274 -41.06842 6401 ft 192 kts 300°
2026-04-29 21:55 -7.32605 -41.08007 6403 ft 191 kts 300°
2026-04-29 21:55 -7.31946 -41.09150 6400 ft 190 kts 300°
2026-04-29 21:55 -7.31275 -41.10306 6400 ft 191 kts 301°
2026-04-29 21:56 -7.30605 -41.11460 6399 ft 190 kts 300°
2026-04-29 21:56 -7.29943 -41.12615 6399 ft 190 kts 300°
2026-04-29 21:56 -7.29281 -41.13760 6396 ft 190 kts 300°
2026-04-29 21:56 -7.28615 -41.14917 6395 ft 191 kts 300°
2026-04-29 21:57 -7.27946 -41.16077 6397 ft 192 kts 300°
2026-04-29 21:57 -7.27273 -41.17238 6396 ft 192 kts 300°
2026-04-29 21:57 -7.26610 -41.18387 6400 ft 191 kts 300°
2026-04-29 21:57 -7.25943 -41.19541 6398 ft 190 kts 300°
2026-04-29 21:58 -7.25273 -41.20699 6400 ft 191 kts 300°
2026-04-29 21:58 -7.24604 -41.21860 6392 ft 191 kts 300°
2026-04-29 21:58 -7.23937 -41.23014 6393 ft 190 kts 300°
2026-04-29 21:58 -7.23279 -41.24153 6391 ft 191 kts 300°
2026-04-29 21:59 -7.22609 -41.25313 6391 ft 192 kts 300°
2026-04-29 21:59 -7.21937 -41.26476 6394 ft 191 kts 300°
2026-04-29 21:59 -7.21275 -41.27621 6399 ft 191 kts 300°
2026-04-29 21:59 -7.20602 -41.28783 6401 ft 192 kts 300°
2026-04-29 22:00 -7.19934 -41.29943 6399 ft 191 kts 300°
2026-04-29 22:00 -7.19264 -41.31102 6396 ft 192 kts 300°
2026-04-29 22:00 -7.18592 -41.32265 6391 ft 191 kts 300°
2026-04-29 22:00 -7.17922 -41.33424 6397 ft 191 kts 300°
2026-04-29 22:01 -7.17251 -41.34581 6396 ft 192 kts 300°
2026-04-29 22:01 -7.16586 -41.35729 6396 ft 192 kts 300°
2026-04-29 22:01 -7.15916 -41.36894 6395 ft 191 kts 300°
2026-04-29 22:01 -7.15474 -41.37658 6392 ft 190 kts 300°
2026-04-29 22:02 -7.14804 -41.38817 6400 ft 192 kts 300°
2026-04-29 22:02 -7.14131 -41.39980 6401 ft 193 kts 300°
2026-04-29 22:02 -7.13453 -41.41149 6398 ft 193 kts 300°
2026-04-29 22:02 -7.12773 -41.42319 6404 ft 193 kts 300°
2026-04-29 22:03 -7.12099 -41.43492 6400 ft 192 kts 300°
2026-04-29 22:03 -7.11426 -41.44659 6398 ft 192 kts 300°
2026-04-29 22:03 -7.10756 -41.45814 6408 ft 193 kts 300°
2026-04-29 22:03 -7.10075 -41.46992 6399 ft 194 kts 300°
2026-04-29 22:04 -7.09393 -41.48164 6399 ft 193 kts 300°
2026-04-29 22:04 -7.08726 -41.49320 6400 ft 194 kts 300°
2026-04-29 22:04 -7.07821 -41.50888 6402 ft 193 kts 300°
2026-04-29 22:04 -7.07368 -41.51665 6399 ft 194 kts 300°
2026-04-29 22:05 -7.06638 -41.52805 6396 ft 193 kts 308°
2026-04-29 22:05 -7.05814 -41.53872 6400 ft 193 kts 308°
2026-04-29 22:05 -7.04189 -41.56025 6398 ft 193 kts 308°
2026-04-29 22:06 -7.03378 -41.57103 6398 ft 193 kts 308°
2026-04-29 22:06 -7.02567 -41.58167 6400 ft 194 kts 308°
2026-04-29 22:06 -7.01752 -41.59250 6400 ft 194 kts 308°
2026-04-29 22:06 -7.00935 -41.60334 6395 ft 193 kts 308°
2026-04-29 22:07 -7.00118 -41.61417 6397 ft 193 kts 308°
2026-04-29 22:07 -6.99315 -41.62481 6398 ft 193 kts 308°
2026-04-29 22:07 -6.98498 -41.63560 6389 ft 193 kts 308°
2026-04-29 22:07 -6.97685 -41.64636 6392 ft 193 kts 308°
2026-04-29 22:08 -6.96871 -41.65708 6392 ft 192 kts 308°
2026-04-29 22:08 -6.96062 -41.66785 6400 ft 193 kts 308°
2026-04-29 22:08 -6.95255 -41.67850 6396 ft 194 kts 308°
2026-04-29 22:08 -6.94440 -41.68929 6399 ft 194 kts 308°
2026-04-29 22:09 -6.93622 -41.70012 6391 ft 194 kts 308°
2026-04-29 22:09 -6.92805 -41.71093 6394 ft 194 kts 308°
2026-04-29 22:09 -6.91990 -41.72170 6390 ft 193 kts 308°
2026-04-29 22:09 -6.91175 -41.73247 6397 ft 193 kts 308°
2026-04-29 22:10 -6.90369 -41.74313 6388 ft 193 kts 308°
2026-04-29 22:10 -6.89558 -41.75385 6394 ft 192 kts 308°
2026-04-29 22:10 -6.88747 -41.76459 6396 ft 192 kts 308°
2026-04-29 22:10 -6.87935 -41.77533 6391 ft 192 kts 308°
2026-04-29 22:11 -6.87126 -41.78602 6395 ft 192 kts 308°
2026-04-29 22:11 -6.86315 -41.79675 6396 ft 193 kts 308°
2026-04-29 22:11 -6.85499 -41.80753 6392 ft 193 kts 308°
2026-04-29 22:11 -6.84693 -41.81821 6393 ft 194 kts 308°
2026-04-29 22:12 -6.83872 -41.82905 6396 ft 194 kts 308°
2026-04-29 22:12 -6.83060 -41.83977 6392 ft 195 kts 308°
2026-04-29 22:12 -6.82240 -41.85062 6397 ft 195 kts 308°
2026-04-29 22:12 -6.81413 -41.86153 6392 ft 196 kts 308°
2026-04-29 22:13 -6.80589 -41.87245 6393 ft 196 kts 308°
2026-04-29 22:13 -6.79763 -41.88333 6393 ft 195 kts 308°
2026-04-29 22:13 -6.78940 -41.89424 6390 ft 195 kts 308°
2026-04-29 22:13 -6.78116 -41.90509 6396 ft 195 kts 308°
2026-04-29 22:14 -6.77304 -41.91585 6395 ft 195 kts 308°
2026-04-29 22:14 -6.76480 -41.92675 6395 ft 195 kts 308°
2026-04-29 22:14 -6.75658 -41.93758 6390 ft 194 kts 308°
2026-04-29 22:14 -6.74843 -41.94837 6393 ft 193 kts 308°
2026-04-29 22:15 -6.74023 -41.95917 6393 ft 194 kts 308°
2026-04-29 22:15 -6.73201 -41.97004 6390 ft 195 kts 308°
2026-04-29 22:15 -6.72400 -41.98064 6400 ft 192 kts 308°
2026-04-29 22:15 -6.71587 -41.99135 6393 ft 192 kts 308°
2026-04-29 22:16 -6.70774 -42.00210 6396 ft 194 kts 308°
2026-04-29 22:16 -6.69954 -42.01296 6388 ft 194 kts 308°
2026-04-29 22:16 -6.69144 -42.02363 6402 ft 195 kts 308°
2026-04-29 22:16 -6.68318 -42.03457 6401 ft 196 kts 307°
2026-04-29 22:17 -6.67491 -42.04546 6386 ft 194 kts 308°
2026-04-29 22:17 -6.66667 -42.05624 6401 ft 194 kts 308°
2026-04-29 22:17 -6.65854 -42.06710 6396 ft 195 kts 308°
2026-04-29 22:17 -6.65028 -42.07797 6399 ft 195 kts 308°
2026-04-29 22:18 -6.64204 -42.08879 6395 ft 198 kts 308°
2026-04-29 22:18 -6.63370 -42.09983 6391 ft 197 kts 307°
2026-04-29 22:18 -6.62545 -42.11078 6398 ft 196 kts 308°
2026-04-29 22:18 -6.61714 -42.12172 6394 ft 196 kts 308°
2026-04-29 22:19 -6.60891 -42.13252 6390 ft 196 kts 308°
2026-04-29 22:19 -6.60069 -42.14340 6387 ft 195 kts 308°
2026-04-29 22:19 -6.59244 -42.15429 6389 ft 196 kts 308°
2026-04-29 22:19 -6.58416 -42.16520 6389 ft 196 kts 308°
2026-04-29 22:20 -6.57594 -42.17604 6389 ft 198 kts 308°
2026-04-29 22:20 -6.56753 -42.18712 6393 ft 198 kts 307°
2026-04-29 22:20 -6.55935 -42.19804 6402 ft 198 kts 307°
2026-04-29 22:20 -6.55094 -42.20907 6395 ft 198 kts 308°
2026-04-29 22:21 -6.54255 -42.22008 6389 ft 198 kts 308°
2026-04-29 22:21 -6.53421 -42.23110 6392 ft 198 kts 307°
2026-04-29 22:21 -6.52586 -42.24215 6394 ft 198 kts 308°
2026-04-29 22:21 -6.51750 -42.25314 6390 ft 198 kts 308°
2026-04-29 22:22 -6.50923 -42.26406 6391 ft 198 kts 307°
2026-04-29 22:22 -6.50087 -42.27504 6390 ft 196 kts 308°
2026-04-29 22:22 -6.49254 -42.28606 6388 ft 198 kts 307°
2026-04-29 22:22 -6.48430 -42.29692 6392 ft 198 kts 307°
2026-04-29 22:23 -6.47591 -42.30801 6396 ft 200 kts 307°
2026-04-29 22:23 -6.46749 -42.31910 6391 ft 198 kts 308°
2026-04-29 22:23 -6.45907 -42.33009 6393 ft 198 kts 307°
2026-04-29 22:23 -6.45073 -42.34116 6391 ft 198 kts 307°
2026-04-29 22:24 -6.44249 -42.35202 6390 ft 197 kts 307°
2026-04-29 22:24 -6.43410 -42.36310 6388 ft 199 kts 307°
2026-04-29 22:24 -6.42577 -42.37410 6386 ft 196 kts 307°
2026-04-29 22:24 -6.41744 -42.38504 6385 ft 197 kts 307°
2026-04-29 22:25 -6.40913 -42.39600 6388 ft 197 kts 307°
2026-04-29 22:25 -6.40093 -42.40680 6390 ft 197 kts 307°
2026-04-29 22:25 -6.39259 -42.41768 6391 ft 196 kts 308°
2026-04-29 22:25 -6.38436 -42.42863 6390 ft 196 kts 307°
2026-04-29 22:26 -6.37607 -42.43959 6389 ft 197 kts 307°
2026-04-29 22:26 -6.36782 -42.45053 6390 ft 195 kts 307°
2026-04-29 22:26 -6.35968 -42.46123 6387 ft 196 kts 308°
2026-04-29 22:26 -6.35121 -42.47217 6390 ft 198 kts 308°
2026-04-29 22:27 -6.34181 -42.48217 6379 ft 195 kts 318°
2026-04-29 22:27 -6.33194 -42.49152 6379 ft 195 kts 317°
2026-04-29 22:27 -6.32221 -42.50084 6377 ft 191 kts 317°
2026-04-29 22:27 -6.31256 -42.51017 6377 ft 194 kts 317°
2026-04-29 22:28 -6.30289 -42.51944 6379 ft 196 kts 317°
2026-04-29 22:28 -6.29304 -42.52898 6392 ft 197 kts 317°
2026-04-29 22:28 -6.28308 -42.53845 6391 ft 196 kts 317°
2026-04-29 22:28 -6.27314 -42.54799 6392 ft 198 kts 317°
2026-04-29 22:29 -6.26319 -42.55755 6394 ft 198 kts 317°
2026-04-29 22:29 -6.25321 -42.56713 6389 ft 197 kts 317°
2026-04-29 22:29 -6.24331 -42.57662 6391 ft 196 kts 317°
2026-04-29 22:29 -6.23358 -42.58600 6383 ft 195 kts 317°
2026-04-29 22:30 -6.22375 -42.59544 6382 ft 195 kts 317°
2026-04-29 22:30 -6.21393 -42.60487 6384 ft 195 kts 317°
2026-04-29 22:30 -6.20404 -42.61436 6397 ft 197 kts 317°
2026-04-29 22:30 -6.19409 -42.62385 6388 ft 197 kts 317°
2026-04-29 22:31 -6.18432 -42.63325 6388 ft 196 kts 317°
2026-04-29 22:31 -6.17448 -42.64277 6381 ft 195 kts 316°
2026-04-29 22:31 -6.16469 -42.65219 6386 ft 195 kts 317°
2026-04-29 22:31 -6.15481 -42.66159 6392 ft 197 kts 318°
2026-04-29 22:32 -6.14485 -42.67113 6373 ft 199 kts 317°
2026-04-29 22:32 -6.13511 -42.68054 6385 ft 195 kts 317°
2026-04-29 22:32 -6.12524 -42.68999 6392 ft 197 kts 317°
2026-04-29 22:32 -6.11526 -42.69954 6386 ft 198 kts 317°
2026-04-29 22:33 -6.10530 -42.70905 6387 ft 197 kts 317°
2026-04-29 22:33 -6.09536 -42.71868 6383 ft 197 kts 317°
2026-04-29 22:33 -6.08560 -42.72807 6389 ft 197 kts 317°
2026-04-29 22:33 -6.07566 -42.73760 6386 ft 198 kts 317°
2026-04-29 22:34 -6.06563 -42.74719 6389 ft 199 kts 317°
2026-04-29 22:34 -6.05552 -42.75679 6382 ft 200 kts 317°
2026-04-29 22:34 -6.04553 -42.76644 6379 ft 198 kts 316°
2026-04-29 22:34 -6.03569 -42.77590 6380 ft 197 kts 317°
2026-04-29 22:35 -6.02581 -42.78537 6380 ft 196 kts 317°
2026-04-29 22:35 -6.01592 -42.79485 6376 ft 196 kts 317°
2026-04-29 22:35 -6.00604 -42.80433 6377 ft 196 kts 317°
2026-04-29 22:35 -5.99618 -42.81379 6379 ft 196 kts 317°
2026-04-29 22:36 -5.98631 -42.82325 6385 ft 196 kts 317°
2026-04-29 22:36 -5.97654 -42.83261 6378 ft 196 kts 317°
2026-04-29 22:36 -5.96666 -42.84211 6384 ft 196 kts 317°
2026-04-29 22:36 -5.95674 -42.85159 6379 ft 197 kts 317°
2026-04-29 22:37 -5.94683 -42.86107 6383 ft 196 kts 317°
2026-04-29 22:37 -5.93699 -42.87053 6378 ft 196 kts 317°
2026-04-29 22:37 -5.92726 -42.87986 6381 ft 196 kts 317°
2026-04-29 22:37 -5.91734 -42.88936 6382 ft 196 kts 317°
2026-04-29 22:38 -5.90747 -42.89882 6378 ft 196 kts 316°
2026-04-29 22:38 -5.89761 -42.90829 6381 ft 196 kts 317°
2026-04-29 22:38 -5.88788 -42.91760 6377 ft 195 kts 317°
2026-04-29 22:38 -5.87804 -42.92702 6379 ft 195 kts 316°
2026-04-29 22:39 -5.86822 -42.93644 6376 ft 195 kts 316°
2026-04-29 22:39 -5.85837 -42.94588 6375 ft 195 kts 316°
2026-04-29 22:39 -5.84856 -42.95528 6381 ft 195 kts 317°
2026-04-29 22:39 -5.83873 -42.96469 6383 ft 195 kts 317°
2026-04-29 22:40 -5.82889 -42.97412 6375 ft 195 kts 317°
2026-04-29 22:40 -5.81921 -42.98340 6378 ft 195 kts 317°
2026-04-29 22:40 -5.80935 -42.99284 6374 ft 195 kts 317°
2026-04-29 22:40 -5.79949 -43.00229 6378 ft 195 kts 317°
2026-04-29 22:41 -5.78968 -43.01169 6372 ft 195 kts 317°
2026-04-29 22:41 -5.77994 -43.02101 6383 ft 195 kts 316°
2026-04-29 22:41 -5.77010 -43.03044 6377 ft 195 kts 317°
2026-04-29 22:41 -5.76026 -43.03986 6378 ft 195 kts 317°
2026-04-29 22:42 -5.75044 -43.04927 6380 ft 195 kts 317°
2026-04-29 22:42 -5.74072 -43.05856 6375 ft 195 kts 317°
2026-04-29 22:42 -5.73089 -43.06798 6375 ft 194 kts 316°
2026-04-29 22:42 -5.72110 -43.07737 6378 ft 194 kts 316°
2026-04-29 22:43 -5.71133 -43.08672 6377 ft 194 kts 317°
2026-04-29 22:43 -5.70162 -43.09601 6379 ft 195 kts 316°
2026-04-29 22:43 -5.69181 -43.10542 6376 ft 194 kts 316°
2026-04-29 22:43 -5.68272 -43.11548 6375 ft 194 kts 312°
2026-04-29 22:44 -5.67358 -43.12550 6376 ft 195 kts 313°
2026-04-29 22:44 -5.66437 -43.13553 6382 ft 195 kts 313°
2026-04-29 22:44 -5.65518 -43.14562 6381 ft 196 kts 313°
2026-04-29 22:44 -5.64609 -43.15557 6387 ft 196 kts 313°
2026-04-29 22:45 -5.63686 -43.16572 6386 ft 197 kts 313°
2026-04-29 22:45 -5.62760 -43.17586 6381 ft 196 kts 313°
2026-04-29 22:45 -5.61839 -43.18599 6381 ft 195 kts 313°
2026-04-29 22:45 -5.60919 -43.19611 6380 ft 196 kts 313°
2026-04-29 22:46 -5.60009 -43.20607 6380 ft 195 kts 313°
2026-04-29 22:46 -5.59092 -43.21612 6384 ft 195 kts 313°
2026-04-29 22:46 -5.58177 -43.22617 6383 ft 195 kts 313°
2026-04-29 22:46 -5.57256 -43.23628 6387 ft 197 kts 313°
2026-04-29 22:47 -5.56335 -43.24641 6381 ft 196 kts 313°
2026-04-29 22:47 -5.55414 -43.25650 6380 ft 195 kts 313°
2026-04-29 22:47 -5.54805 -43.26316 6380 ft 195 kts 313°
2026-04-29 22:47 -5.53586 -43.27653 6389 ft 196 kts 313°
2026-04-29 22:48 -5.52662 -43.28668 6383 ft 197 kts 313°
2026-04-29 22:48 -5.52051 -43.29340 6388 ft 196 kts 313°
2026-04-29 22:48 -5.51128 -43.30352 6381 ft 195 kts 313°
2026-04-29 22:48 -5.50208 -43.31360 6385 ft 196 kts 313°
2026-04-29 22:49 -5.49290 -43.32368 6383 ft 196 kts 313°
2026-04-29 22:49 -5.48371 -43.33378 6382 ft 195 kts 313°
2026-04-29 22:49 -5.47448 -43.34387 6379 ft 195 kts 313°
2026-04-29 22:49 -5.46538 -43.35387 6392 ft 196 kts 313°
2026-04-29 22:50 -5.45614 -43.36400 6382 ft 195 kts 313°
2026-04-29 22:50 -5.44701 -43.37398 6389 ft 196 kts 313°
2026-04-29 22:50 -5.43776 -43.38416 6384 ft 196 kts 313°
2026-04-29 22:50 -5.42852 -43.39428 6387 ft 196 kts 313°
2026-04-29 22:51 -5.41929 -43.40437 6388 ft 196 kts 313°
2026-04-29 22:51 -5.41008 -43.41451 6388 ft 197 kts 313°
2026-04-29 22:51 -5.39173 -43.43464 6384 ft 196 kts 313°
2026-04-29 22:52 -5.38253 -43.44468 6393 ft 195 kts 313°
2026-04-29 22:52 -5.37334 -43.45480 6387 ft 196 kts 313°
2026-04-29 22:52 -5.36408 -43.46489 6382 ft 196 kts 313°
2026-04-29 22:52 -5.35493 -43.47495 6379 ft 194 kts 313°
2026-04-29 22:53 -5.34591 -43.48486 6383 ft 196 kts 313°
2026-04-29 22:53 -5.33667 -43.49496 6393 ft 197 kts 313°
2026-04-29 22:53 -5.32735 -43.50513 6382 ft 196 kts 313°
2026-04-29 22:53 -5.31815 -43.51524 6382 ft 196 kts 313°
2026-04-29 22:54 -5.30897 -43.52534 6385 ft 195 kts 314°
2026-04-29 22:54 -5.29976 -43.53542 6387 ft 196 kts 313°
2026-04-29 22:54 -5.29074 -43.54534 6381 ft 194 kts 313°
2026-04-29 22:54 -5.28157 -43.55532 6378 ft 194 kts 313°
2026-04-29 22:55 -5.27248 -43.56532 6383 ft 194 kts 313°
2026-04-29 22:55 -5.26328 -43.57541 6379 ft 195 kts 313°
2026-04-29 22:55 -5.25421 -43.58560 6385 ft 196 kts 307°
2026-04-29 22:55 -5.24668 -43.59690 6386 ft 195 kts 302°
2026-04-29 22:56 -5.23921 -43.60819 6387 ft 197 kts 303°
2026-04-29 22:56 -5.23152 -43.61967 6395 ft 199 kts 304°
2026-04-29 22:56 -5.22369 -43.63130 6394 ft 200 kts 303°
2026-04-29 22:56 -5.21587 -43.64294 6396 ft 202 kts 302°
2026-04-29 22:57 -5.20807 -43.65471 6384 ft 202 kts 303°
2026-04-29 22:57 -5.20035 -43.66613 6381 ft 198 kts 303°
2026-04-29 22:57 -5.19267 -43.67754 6385 ft 196 kts 303°
2026-04-29 22:57 -5.18497 -43.68904 6376 ft 198 kts 303°
2026-04-29 22:58 -5.17735 -43.70049 6375 ft 196 kts 303°
2026-04-29 22:58 -5.16968 -43.71187 6382 ft 196 kts 303°
2026-04-29 22:58 -5.16208 -43.72325 6374 ft 196 kts 303°
2026-04-29 22:58 -5.15460 -43.73442 6381 ft 195 kts 303°
2026-04-29 22:59 -5.14698 -43.74575 6381 ft 194 kts 303°
2026-04-29 22:59 -5.13946 -43.75703 6382 ft 194 kts 303°
2026-04-29 22:59 -5.13201 -43.76812 6383 ft 194 kts 303°
2026-04-29 22:59 -5.12444 -43.77939 6386 ft 194 kts 303°
2026-04-29 23:00 -5.11679 -43.79074 6390 ft 196 kts 303°
2026-04-29 23:00 -5.10924 -43.80207 6391 ft 195 kts 302°
2026-04-29 23:00 -5.10172 -43.81337 6381 ft 197 kts 303°
2026-04-29 23:00 -5.09405 -43.82473 6385 ft 196 kts 303°
2026-04-29 23:01 -5.08643 -43.83607 6395 ft 198 kts 303°
2026-04-29 23:01 -5.07879 -43.84749 6388 ft 196 kts 303°
2026-04-29 23:01 -5.07119 -43.85882 6390 ft 195 kts 303°
2026-04-29 23:01 -5.06371 -43.86997 6389 ft 194 kts 303°
2026-04-29 23:02 -5.05616 -43.88122 6384 ft 194 kts 303°
2026-04-29 23:02 -5.04862 -43.89246 6383 ft 193 kts 303°
2026-04-29 23:02 -5.04107 -43.90372 6387 ft 196 kts 303°
2026-04-29 23:02 -5.03347 -43.91506 6387 ft 198 kts 303°
2026-04-29 23:03 -5.02577 -43.92652 6385 ft 197 kts 303°
2026-04-29 23:03 -5.01807 -43.93797 6384 ft 198 kts 303°
2026-04-29 23:03 -5.01046 -43.94938 6387 ft 197 kts 303°
2026-04-29 23:03 -5.00283 -43.96073 6387 ft 196 kts 303°
2026-04-29 23:04 -4.99518 -43.97213 6389 ft 197 kts 303°
2026-04-29 23:04 -4.98761 -43.98340 6393 ft 197 kts 303°
2026-04-29 23:04 -4.97991 -43.99491 6399 ft 199 kts 303°
2026-04-29 23:04 -4.97221 -44.00637 6391 ft 196 kts 303°
2026-04-29 23:05 -4.96470 -44.01755 6394 ft 196 kts 303°
2026-04-29 23:05 -4.95708 -44.02891 6390 ft 195 kts 303°
2026-04-29 23:05 -4.94954 -44.04014 6393 ft 194 kts 303°
2026-04-29 23:05 -4.94201 -44.05134 6397 ft 193 kts 303°
2026-04-29 23:06 -4.93448 -44.06257 6388 ft 194 kts 303°
2026-04-29 23:06 -4.92698 -44.07375 6390 ft 193 kts 303°
2026-04-29 23:06 -4.91957 -44.08480 6388 ft 193 kts 303°
2026-04-29 23:06 -4.91203 -44.09604 6387 ft 194 kts 303°
2026-04-29 23:07 -4.90447 -44.10728 6391 ft 194 kts 303°
2026-04-29 23:07 -4.89693 -44.11852 6395 ft 195 kts 303°
2026-04-29 23:07 -4.88942 -44.12969 6395 ft 195 kts 303°
2026-04-29 23:07 -4.88186 -44.14095 6392 ft 194 kts 303°
2026-04-29 23:08 -4.87431 -44.15221 6395 ft 194 kts 303°
2026-04-29 23:08 -4.86679 -44.16339 6400 ft 195 kts 303°
2026-04-29 23:08 -4.85917 -44.17477 6397 ft 198 kts 303°
2026-04-29 23:08 -4.85147 -44.18619 6394 ft 196 kts 303°
2026-04-29 23:09 -4.84385 -44.19755 6396 ft 196 kts 303°
2026-04-29 23:09 -4.83621 -44.20895 6398 ft 197 kts 303°
2026-04-29 23:09 -4.82865 -44.22022 6401 ft 196 kts 303°
2026-04-29 23:09 -4.82099 -44.23159 6398 ft 196 kts 303°
2026-04-29 23:10 -4.81334 -44.24295 6402 ft 195 kts 303°
2026-04-29 23:10 -4.80578 -44.25421 6404 ft 195 kts 303°
2026-04-29 23:10 -4.79818 -44.26555 6403 ft 195 kts 303°
2026-04-29 23:10 -4.79065 -44.27676 6403 ft 195 kts 304°
2026-04-29 23:11 -4.78306 -44.28803 6400 ft 194 kts 303°
2026-04-29 23:11 -4.77554 -44.29926 6400 ft 194 kts 303°
2026-04-29 23:11 -4.76797 -44.31051 6399 ft 194 kts 303°
2026-04-29 23:11 -4.76040 -44.32179 6399 ft 195 kts 303°
2026-04-29 23:12 -4.75281 -44.33310 6398 ft 195 kts 304°
2026-04-29 23:12 -4.74519 -44.34440 6387 ft 195 kts 304°
2026-04-29 23:12 -4.73774 -44.35550 6386 ft 194 kts 304°
2026-04-29 23:12 -4.73018 -44.36676 6381 ft 195 kts 304°
2026-04-29 23:13 -4.72258 -44.37805 6381 ft 194 kts 304°
2026-04-29 23:13 -4.71506 -44.38926 6385 ft 193 kts 304°
2026-04-29 23:13 -4.70751 -44.40046 6392 ft 194 kts 304°
2026-04-29 23:13 -4.69997 -44.41171 6389 ft 195 kts 303°
2026-04-29 23:14 -4.69250 -44.42283 6388 ft 194 kts 304°
2026-04-29 23:14 -4.68491 -44.43408 6387 ft 194 kts 303°
2026-04-29 23:14 -4.67729 -44.44545 6390 ft 195 kts 304°
2026-04-29 23:14 -4.66972 -44.45670 6385 ft 194 kts 304°
2026-04-29 23:15 -4.66228 -44.46775 6213 ft 191 kts 304°
2026-04-29 23:15 -4.65475 -44.47896 5876 ft 197 kts 304°
2026-04-29 23:15 -4.64704 -44.49044 5544 ft 199 kts 304°
2026-04-29 23:15 -4.63929 -44.50198 5220 ft 200 kts 304°
2026-04-29 23:16 -4.63159 -44.51339 4892 ft 199 kts 304°
2026-04-29 23:16 -4.62385 -44.52488 4566 ft 199 kts 304°
2026-04-29 23:16 -4.61623 -44.53623 4401 ft 190 kts 304°
2026-04-29 23:16 -4.60902 -44.54699 4378 ft 181 kts 304°
2026-04-29 23:17 -4.60212 -44.55733 4384 ft 175 kts 304°
2026-04-29 23:17 -4.59535 -44.56729 4376 ft 175 kts 305°
2026-04-29 23:17 -4.58859 -44.57729 4383 ft 172 kts 304°
2026-04-29 23:17 -4.58187 -44.58732 4388 ft 174 kts 305°
2026-04-29 23:18 -4.57491 -44.59770 4399 ft 183 kts 304°
2026-04-29 23:18 -4.56628 -44.60713 4401 ft 186 kts 328°
2026-04-29 23:18 -4.55534 -44.61403 4405 ft 186 kts 328°
2026-04-29 23:18 -4.54452 -44.62127 4393 ft 188 kts 328°
2026-04-29 23:19 -4.53363 -44.62849 4395 ft 189 kts 329°
2026-04-29 23:19 -4.52270 -44.63570 4392 ft 187 kts 329°
2026-04-29 23:19 -4.51180 -44.64285 4387 ft 187 kts 329°
2026-04-29 23:19 -4.50094 -44.65006 4388 ft 187 kts 328°
2026-04-29 23:20 -4.49002 -44.65722 4394 ft 189 kts 329°
2026-04-29 23:20 -4.47905 -44.66439 4391 ft 187 kts 328°
2026-04-29 23:20 -4.46823 -44.67158 4390 ft 186 kts 329°
2026-04-29 23:20 -4.45740 -44.67874 4390 ft 186 kts 329°
2026-04-29 23:21 -4.44672 -44.68577 4396 ft 187 kts 329°
2026-04-29 23:21 -4.43584 -44.69291 4391 ft 186 kts 329°
2026-04-29 23:21 -4.42504 -44.70003 4391 ft 185 kts 329°
2026-04-29 23:21 -4.41413 -44.70720 4399 ft 188 kts 329°
2026-04-29 23:22 -4.40316 -44.71442 4393 ft 188 kts 328°
2026-04-29 23:22 -4.39225 -44.72166 4287 ft 187 kts 328°
2026-04-29 23:22 -4.38137 -44.72879 3952 ft 183 kts 329°
2026-04-29 23:22 -4.37117 -44.73554 3597 ft 173 kts 329°
2026-04-29 23:23 -4.36126 -44.74207 3260 ft 169 kts 329°
2026-04-29 23:23 -4.35151 -44.74842 2911 ft 166 kts 329°
2026-04-29 23:23 -4.34196 -44.75474 2583 ft 164 kts 329°
2026-04-29 23:23 -4.33234 -44.76110 2245 ft 165 kts 329°
2026-04-29 23:24 -4.32272 -44.76738 1910 ft 166 kts 328°
2026-04-29 23:24 -4.31311 -44.77375 1582 ft 164 kts 329°
2026-04-29 23:24 -4.30373 -44.77985 1402 ft 154 kts 329°
2026-04-29 23:24 -4.29528 -44.78550 1373 ft 139 kts 328°
2026-04-29 23:25 -4.28765 -44.79057 1384 ft 127 kts 329°
2026-04-29 23:25 -4.28046 -44.79523 1380 ft 120 kts 329°
2026-04-29 23:25 -4.27356 -44.79982 1387 ft 121 kts 329°
2026-04-29 23:25 -4.26640 -44.80448 1397 ft 124 kts 329°
2026-04-29 23:26 -4.25929 -44.80920 1400 ft 124 kts 329°
2026-04-29 23:26 -4.25230 -44.81401 1380 ft 122 kts 322°
2026-04-29 23:26 -4.24826 -44.82196 1125 ft 132 kts 278°
2026-04-29 23:26 -4.24874 -44.83083 1015 ft 124 kts 263°
2026-04-29 23:27 -4.24955 -44.83904 996 ft 115 kts 264°
2026-04-29 23:27 -4.25033 -44.84687 985 ft 113 kts 265°
2026-04-29 23:27 -4.25113 -44.85545 1005 ft 129 kts 265°
2026-04-29 23:27 -4.25204 -44.86447 1002 ft 130 kts 265°
2026-04-29 23:28 -4.25283 -44.87334 1001 ft 125 kts 268°
2026-04-29 23:28 -4.24961 -44.88094 981 ft 119 kts 325°
2026-04-29 23:28 -4.24230 -44.88285 983 ft 105 kts
2026-04-29 23:28 -4.23628 -44.87962 989 ft 99 kts 49°
2026-04-29 23:29 -4.23383 -44.87315 926 ft 106 kts 84°
2026-04-29 23:29 -4.23310 -44.86550 676 ft 115 kts 83°
2026-04-29 23:29 -4.23222 -44.85735 419 ft 120 kts 83°
2026-04-29 23:29 -4.23131 -44.84917 294 ft 113 kts 83°
2026-04-29 23:30 -4.23049 -44.84172 285 ft 104 kts 83°
2026-04-29 23:30 -4.22973 -44.83486 290 ft 86 kts 83°
2026-04-29 23:30 -4.22916 -44.82969 160 ft 66 kts 83°
2026-04-29 23:30 -4.22875 -44.82565 81 ft 50 kts 82°
2026-04-29 23:31 -4.22850 -44.82361 80 ft 24 kts 83°
2026-04-29 23:31 -4.22852 -44.82237 81 ft 10 kts 133°
2026-04-29 23:31 -4.22929 -44.82216 74 ft 13 kts 173°
2026-04-29 23:31 -4.23003 -44.82197 76 ft 9 kts 131°
2026-04-29 23:32 -4.23023 -44.82174 77 ft 0 kts 149°